Le Ponant — FGZZ — position and weather

sailwx.info

Track history (hours):
 
Tides and Currents Weather Stations Pressure Air Temp Water Temp Dewpoint Dewpoint Depression Visibility Wind Speed Wind Dir Waves Ship Positions

Le Ponant

Operator: Compangy des Iles du Ponant

Last reported at 2014-Jul-23 04:15 UTC. Time now 2014-Jul-23 05:43 UTC.
Position N 42°52' E 010°04'.

Length 84 m; draft 4.2 m.

Type: Passenger vessel. MMSI: 227186000.

Date/timePositionNaut miles runAvg speedWind from/ knotsBaromVisibWave heightAir tempDewpointWater temp
2014-Jul-23 04:15N 42°52' E 010°04'5 7.2
2014-Jul-23 03:33N 42°48' E 009°60'9 9.2
2014-Jul-23 02:33N 42°39' E 009°56'  
2014-Jul-20 03:30N 42°34' E 008°21'8 7.0
2014-Jul-20 02:18N 42°41' E 008°14'5 7.3
2014-Jul-20 01:33N 42°45' E 008°10'8 7.9
2014-Jul-20 00:33N 42°52' E 008°05'8 8.3
2014-Jul-19 23:33N 42°59' E 007°59'8 8.2
2014-Jul-19 22:33N 43°06' E 007°52'8 8.4
2014-Jul-19 21:33N 43°13' E 007°46'8 8.3
2014-Jul-19 20:33N 43°19' E 007°39'9 8.6
2014-Jul-19 19:33N 43°26' E 007°32'9 8.7
2014-Jul-19 18:33N 43°33' E 007°25'8 8.4
2014-Jul-19 17:33N 43°40' E 007°18'1 0.0
2014-Jul-19 05:33N 43°41' E 007°18'7 7.5
2014-Jul-19 04:33N 43°35' E 007°24'1110.6
2014-Jul-19 03:34N 43°29' E 007°36'1010.4
2014-Jul-19 02:33N 43°22' E 007°47'1010.3
2014-Jul-19 01:34N 43°16' E 007°58'10 9.9
2014-Jul-19 00:33N 43°09' E 008°08'10 9.7
2014-Jul-18 23:34N 43°03' E 008°19'10 9.9
2014-Jul-18 22:32N 42°57' E 008°29'1010.1
2014-Jul-18 21:32N 42°50' E 008°40'1010.0
2014-Jul-18 20:33N 42°44' E 008°50'8 5.8
2014-Jul-18 19:14N 42°38' E 008°57'0 0.1
2014-Jul-18 18:32N 42°38' E 008°57'0 0.0
2014-Jul-18 17:23N 42°38' E 008°57'0 0.0
2014-Jul-18 16:11N 42°38' E 008°57'0 0.0
2014-Jul-18 14:23N 42°38' E 008°57'0 0.0
2014-Jul-18 10:29N 42°38' E 008°57'0 0.0
2014-Jul-18 09:32N 42°38' E 008°57'0 0.0
2014-Jul-18 08:29N 42°38' E 008°57'0 0.0
2014-Jul-18 07:29N 42°38' E 008°57'0 0.0
2014-Jul-18 06:32N 42°38' E 008°57'4 3.4
2014-Jul-18 05:13N 42°39' E 008°51'7 8.3
2014-Jul-18 04:20N 42°35' E 008°42'17 8.5
2014-Jul-18 02:22N 42°21' E 008°30'7 8.7
2014-Jul-18 01:32N 42°14' E 008°30'1 0.6
2014-Jul-18 00:04N 42°15' E 008°30'10 6.4
2014-Jul-17 22:30N 42°05' E 008°30'8 8.0
2014-Jul-17 21:33N 41°57' E 008°30'8 7.7
2014-Jul-17 20:33N 41°49' E 008°32'8 7.8
2014-Jul-17 19:34N 41°42' E 008°35'8 8.1
2014-Jul-17 18:33N 41°34' E 008°39'7 6.7
2014-Jul-17 17:29N 41°30' E 008°46'  
2014-Jul-14 00:32N 42°60' E 007°20'8 8.4
2014-Jul-13 23:33N 43°05' E 007°11'1010.0
2014-Jul-13 22:33N 43°10' E 006°59'1010.3
2014-Jul-13 21:34N 43°15' E 006°47'7 5.7
2014-Jul-13 20:23N 43°17' E 006°38'0 0.0
2014-Jul-13 19:29N 43°17' E 006°38'0 0.0
2014-Jul-13 18:32N 43°17' E 006°38'0 0.0
2014-Jul-13 17:29N 43°17' E 006°38'0 0.0
2014-Jul-13 16:26N 43°17' E 006°38'0 0.1
2014-Jul-13 15:05N 43°17' E 006°38'0 0.0
2014-Jul-13 14:20N 43°17' E 006°38'0 0.0
2014-Jul-13 13:17N 43°17' E 006°38'0 0.0
2014-Jul-13 12:29N 43°17' E 006°38'0 0.0
2014-Jul-13 11:29N 43°17' E 006°38'0 0.0
2014-Jul-13 10:29N 43°17' E 006°38'0 0.1
2014-Jul-13 09:29N 43°17' E 006°38'0 0.0
2014-Jul-13 08:29N 43°17' E 006°38'0 0.5
2014-Jul-13 07:33N 43°17' E 006°38'8 8.5
2014-Jul-13 06:33N 43°22' E 006°48'3 3.1
2014-Jul-13 05:34N 43°21' E 006°52'9 8.6
2014-Jul-13 04:33N 43°13' E 006°49'  
Track history (hours):
 
Tides and Currents Weather Stations Pressure Air Temp Water Temp Dewpoint Dewpoint Depression Visibility Wind Speed Wind Dir Waves Ship Positions

Le Ponant

Operator: Compangy des Iles du Ponant

Last reported at 2014-Jul-23 04:15 UTC. Time now 2014-Jul-23 05:43 UTC.
Position N 42°52' E 010°04'.

Length 84 m; draft 4.2 m.

Type: Passenger vessel. MMSI: 227186000.

Date/timePositionNaut miles runAvg speedWind from/ knotsBaromVisibWave heightAir tempDewpointWater temp
2014-Jul-23 04:15N 42°52' E 010°04'5 7.2
2014-Jul-23 03:33N 42°48' E 009°60'9 9.2
2014-Jul-23 02:33N 42°39' E 009°56'  
2014-Jul-20 03:30N 42°34' E 008°21'8 7.0
2014-Jul-20 02:18N 42°41' E 008°14'5 7.3
2014-Jul-20 01:33N 42°45' E 008°10'8 7.9
2014-Jul-20 00:33N 42°52' E 008°05'8 8.3
2014-Jul-19 23:33N 42°59' E 007°59'8 8.2
2014-Jul-19 22:33N 43°06' E 007°52'8 8.4
2014-Jul-19 21:33N 43°13' E 007°46'8 8.3
2014-Jul-19 20:33N 43°19' E 007°39'9 8.6
2014-Jul-19 19:33N 43°26' E 007°32'9 8.7
2014-Jul-19 18:33N 43°33' E 007°25'8 8.4
2014-Jul-19 17:33N 43°40' E 007°18'1 0.0
2014-Jul-19 05:33N 43°41' E 007°18'7 7.5
2014-Jul-19 04:33N 43°35' E 007°24'1110.6
2014-Jul-19 03:34N 43°29' E 007°36'1010.4
2014-Jul-19 02:33N 43°22' E 007°47'1010.3
2014-Jul-19 01:34N 43°16' E 007°58'10 9.9
2014-Jul-19 00:33N 43°09' E 008°08'10 9.7
2014-Jul-18 23:34N 43°03' E 008°19'10 9.9
2014-Jul-18 22:32N 42°57' E 008°29'1010.1
2014-Jul-18 21:32N 42°50' E 008°40'1010.0
2014-Jul-18 20:33N 42°44' E 008°50'8 5.8
2014-Jul-18 19:14N 42°38' E 008°57'0 0.1
2014-Jul-18 18:32N 42°38' E 008°57'0 0.0
2014-Jul-18 17:23N 42°38' E 008°57'0 0.0
2014-Jul-18 16:11N 42°38' E 008°57'0 0.0
2014-Jul-18 14:23N 42°38' E 008°57'0 0.0
2014-Jul-18 10:29N 42°38' E 008°57'0 0.0
2014-Jul-18 09:32N 42°38' E 008°57'0 0.0
2014-Jul-18 08:29N 42°38' E 008°57'0 0.0
2014-Jul-18 07:29N 42°38' E 008°57'0 0.0
2014-Jul-18 06:32N 42°38' E 008°57'4 3.4
2014-Jul-18 05:13N 42°39' E 008°51'7 8.3
2014-Jul-18 04:20N 42°35' E 008°42'17 8.5
2014-Jul-18 02:22N 42°21' E 008°30'7 8.7
2014-Jul-18 01:32N 42°14' E 008°30'1 0.6
2014-Jul-18 00:04N 42°15' E 008°30'10 6.4
2014-Jul-17 22:30N 42°05' E 008°30'8 8.0
2014-Jul-17 21:33N 41°57' E 008°30'8 7.7
2014-Jul-17 20:33N 41°49' E 008°32'8 7.8
2014-Jul-17 19:34N 41°42' E 008°35'8 8.1
2014-Jul-17 18:33N 41°34' E 008°39'7 6.7
2014-Jul-17 17:29N 41°30' E 008°46'  
2014-Jul-14 00:32N 42°60' E 007°20'8 8.4
2014-Jul-13 23:33N 43°05' E 007°11'1010.0
2014-Jul-13 22:33N 43°10' E 006°59'1010.3
2014-Jul-13 21:34N 43°15' E 006°47'7 5.7
2014-Jul-13 20:23N 43°17' E 006°38'0 0.0
2014-Jul-13 19:29N 43°17' E 006°38'0 0.0
2014-Jul-13 18:32N 43°17' E 006°38'0 0.0
2014-Jul-13 17:29N 43°17' E 006°38'0 0.0
2014-Jul-13 16:26N 43°17' E 006°38'0 0.1
2014-Jul-13 15:05N 43°17' E 006°38'0 0.0
2014-Jul-13 14:20N 43°17' E 006°38'0 0.0
2014-Jul-13 13:17N 43°17' E 006°38'0 0.0
2014-Jul-13 12:29N 43°17' E 006°38'0 0.0
2014-Jul-13 11:29N 43°17' E 006°38'0 0.0
2014-Jul-13 10:29N 43°17' E 006°38'0 0.1
2014-Jul-13 09:29N 43°17' E 006°38'0 0.0
2014-Jul-13 08:29N 43°17' E 006°38'0 0.5
2014-Jul-13 07:33N 43°17' E 006°38'8 8.5
2014-Jul-13 06:33N 43°22' E 006°48'3 3.1
2014-Jul-13 05:34N 43°21' E 006°52'9 8.6
2014-Jul-13 04:33N 43°13' E 006°49'  

Dump ship's entire track history